Location: Starry Hill Observatory
(46.8582°N, 122.3590°W)
Time: 07:23:43
(UTC-08:00)

Daily predictions for brighter satellites

Satellite Brightness Start Highest point End
(mag) Time Altitude Azimuth Time Altitude Azimuth Time Altitude Azimuth
MSX 4.5 16:50:14 10° SE 16:55:16 33° ENE 17:00:19 10° N
CZ-2C R/B 2.9 16:51:48 10° SE 16:56:34 43° ENE 17:01:27 10° N
CZ-2C R/B 3.7 16:52:12 10° NNE 16:56:39 65° ESE 17:01:07 10° S
ERBS 4.3 16:54:50 10° NNW 16:57:03 16° N 16:59:16 10° NE
NOSS 3-4 (A) 4.3 16:51:25 10° NNW 16:57:46 38° NE 17:04:26 10° ESE
NOSS 3-4 (C) 4.3 16:51:31 10° NNW 16:57:51 38° NE 17:04:31 10° E
BREEZE-M DEB (TANK) 3.8 16:48:15 10° W 16:58:51 66° NNW 17:03:13 10° ENE
Timation 2 Rocket 4.3 16:58:56 10° NNW 17:05:37 55° NE 17:12:22 10° SE
SJ-12 4.2 17:01:50 10° SE 17:05:47 48° ENE 17:09:47 10° N
Cosmos 494 Rocket 4.2 17:00:49 10° NNW 17:06:05 81° WSW 17:11:21 10° SSE
NOSS 3-3 (A) 4.2 17:01:18 10° SSW 17:07:22 57° ESE 17:13:56 10° NE
NOSS 3-3 (C) 4.3 17:01:25 10° SSW 17:07:28 57° ESE 17:14:01 10° NE
Cosmos 1536 Rocket 4.0 17:03:17 10° SSE 17:07:30 43° E 17:11:46 10° NNE
BREEZE M DEB (TANK) 2.5 17:06:31 10° WNW 17:09:10 62° NNE 17:15:42 10° E
Ariane Rocket 4.2 17:07:22 10° S 17:12:14 46° W 17:17:07 10° NNW
ATLAS 2AS CENTAUR R/B 3.9 17:05:03 10° NW 17:12:55 57° WSW 17:20:17 10° SSE
COSMOS 2487 2.5 17:11:28 10° NNW 17:15:02 57° ENE 17:18:34 10° SSE
YAOGAN 1 2.7 17:13:14 10° SSE 17:17:27 54° ENE 17:21:42 10° N
Cosmos 1844 3.8 17:12:03 10° SSW 17:17:36 77° WNW 17:23:12 10° NNE
Cosmos 2297 4.3 17:17:08 10° S 17:22:16 37° ESE 17:27:15 11° NE
Okean 1 3.5 17:18:32 10° S 17:22:29 54° E 17:26:29 10° NNE
SPOT 3 Rocket 3.5 17:20:11 10° SSE 17:25:21 76° ENE 17:30:32 10° NNW
SL-8 R/B 3.8 17:21:20 10° WSW 17:26:06 76° SSE 17:29:59 15° ENE
Cosmos 1666 4.1 17:24:14 10° NNE 17:26:55 18° ENE 17:29:36 10° ESE
Cosmos 1346 Rocket 3.1 17:24:22 10° SSE 17:28:02 42° E 17:31:43 10° NNE
Genesis I 4.2 17:25:09 10° NW 17:28:59 50° WSW 17:32:46 10° SSE
USA 32 4.2 17:25:06 10° S 17:30:19 76° W 17:35:34 10° N
ISS -2.4 17:28:17 10° W 17:31:24 38° N 17:33:22 19° NE
Cosmos 2278 Rocket 2.2 17:25:51 10° SSW 17:31:31 86° ESE 17:37:13 10° NNE
Cosmos 1455 Rocket 3.5 17:27:14 10° NNW 17:31:38 66° W 17:36:02 10° S
SMAP 3.0 17:28:26 10° SSE 17:33:06 85° ENE 17:37:46 10° NNW
Meteor 1-18 Rocket 4.3 17:27:43 10° S 17:33:24 89° ESE 17:39:15 10° NNE
BREEZE-M DEB (TANK) 1.4 17:31:49 10° WSW 17:33:58 76° NNW 17:35:15 24° ENE
Nadezhda 3 Rocket 4.2 17:28:35 10° SSE 17:34:28 47° E 17:40:27 10° NNE
SL-24 DEB 4.5 17:30:08 10° NNE 17:34:45 50° E 17:39:18 10° SSE
SKYMED 2 4.5 17:35:39 15° NE 17:38:28 28° E 17:42:11 10° SSE
BREEZE M DEB (TANK) 3.9 17:31:33 10° SW 17:39:35 33° SSE 17:41:52 17° E
Tiangong 1 2.4 17:41:30 10° SW 17:44:12 29° SSE 17:45:43 19° ESE
GEOS 3 Rocket 4.1 17:41:16 14° E 17:45:05 37° NE 17:49:45 10° NNW
EP 1 4.4 17:42:44 10° SSW 17:45:15 51° SE 17:46:01 35° ENE
CZ-3B DEB 2.4 17:42:14 10° WSW 17:46:13 85° NNW 17:53:54 17° ENE
Cosmos 1833 Rocket 2.6 17:41:12 10° NNW 17:46:52 74° ENE 17:52:30 10° SSE
Cosmos 1500 3.4 17:44:40 10° NNW 17:48:31 76° W 17:52:22 10° S
ASTRO F (AKARI) 4.4 17:47:09 24° NE 17:48:45 47° E 17:51:49 10° S
Cosmos 1743 2.8 17:45:09 10° N 17:48:58 52° ENE 17:52:44 10° SSE
CZ-3A R/B 3.9 17:47:11 10° WSW 17:52:42 70° NNW 18:13:42 19° ENE
Cosmos 2082 Rocket 2.2 17:48:35 10° NNW 17:54:17 86° WSW 17:59:59 10° SSE
IDEFIX/ARIANE 42P 3.0 17:49:41 10° S 17:54:50 64° WSW 18:00:00 10° NNW
Thor Agena Rocket 3.6 17:50:35 10° NNE 17:55:49 83° WNW 18:01:06 10° SSW
TIMED 4.4 17:52:51 10° SSW 17:57:11 70° ESE 18:00:12 19° NNE
Cosmos 1809 Rocket 4.5 17:52:01 10° N 17:58:12 84° W 18:04:18 10° S
Okean 1-7 Rocket 3.7 17:54:12 10° S 17:58:35 55° E 18:02:18 14° NNE
NOSS 2-1 (D) 3.7 17:55:29 10° SSW 17:59:10 46° ESE 18:00:41 31° ENE
NOSS 2-1 (C) 3.7 17:56:10 10° SSW 17:59:52 45° ESE 18:01:20 31° ENE
Cosmos 1726 Rocket 4.3 17:56:04 10° N 18:00:04 31° ENE 18:04:04 10° SE
Cosmos 1484 Rocket 2.5 18:02:21 10° SSE 18:06:04 80° ENE 18:09:49 10° N
Intercosmos 25 2.8 18:06:29 10° N 18:09:43 85° W 18:13:03 10° S
Meteor 1-19 Rocket 4.2 18:06:59 10° S 18:12:44 70° E 18:18:36 10° NNE
BREEZE-M R/B 4.0 18:02:24 10° WSW 18:12:50 86° SSE 18:15:17 34° ENE
Cosmos 1934 Rocket 3.9 18:10:30 10° N 18:16:40 62° ENE 18:22:53 10° SSE
NOSS 2-1 (E) 3.4 18:14:37 10° SSW 18:18:30 63° SE 18:19:30 47° ENE
Cosmos 1606 Rocket 3.6 18:14:57 10° N 18:19:23 57° ENE 18:23:47 10° SSE
CZ-4 R/B 3.9 18:16:42 10° SSW 18:20:04 24° W 18:23:24 10° NW
Meteor 1-15 Rocket 4.3 18:18:47 10° N 18:24:39 60° ENE 18:30:22 10° SSE
Cosmos 1535 Rocket 4.4 18:18:40 10° N 18:25:02 87° E 18:31:15 10° S
COSMO-SKYMED 1 2.4 18:24:15 26° NNE 18:26:43 86° ESE 18:31:03 10° SSW
USA 234 3.2 18:28:02 31° NE 18:31:30 83° NNW 18:38:02 10° WSW
Meteor 2-9 Rocket 4.0 18:26:36 10° N 18:32:05 82° E 18:37:24 10° SSE
ERBS 4.0 18:31:22 10° NW 18:33:07 24° NNW 18:33:07 24° NNW
Cosmos 2369 Rocket 4.1 18:31:27 10° SSE 18:32:38 15° SE 18:32:38 15° SE
Meteor 1-23 Rocket 4.1 18:30:53 10° S 18:36:31 69° E 18:39:33 28° NNE
Cosmos 407 Rocket 3.3 18:35:04 10° NNW 18:40:13 76° ENE 18:42:46 30° SSE
Meteor 2-4 Rocket 3.4 18:34:55 10° S 18:40:17 84° E 18:43:22 26° NNE
Cosmos 921 Rocket 3.7 18:36:22 10° SW 18:40:33 52° WNW 18:42:38 27° N
Cosmos 1025 Rocket 3.0 18:36:20 10° S 18:40:43 84° W 18:42:06 44° N
Cosmos 2056 Rocket 3.4 18:38:18 10° SSW 18:43:38 73° ESE 18:44:38 57° NE
NOAA 12 4.1 18:43:30 10° SSE 18:48:47 84° WSW 18:54:05 10° NNW
NOSS 3-4 (A) 4.0 18:42:16 10° NW 18:49:12 70° SW 18:56:34 10° SSE
NOSS 3-4 (C) 4.0 18:42:22 10° NW 18:49:19 70° SW 18:56:41 10° SSE
Cosmos 1821 Rocket 4.3 18:43:40 10° NNW 18:49:42 63° W 18:55:42 10° S
Cosmos 676 Rocket 3.9 18:45:22 10° NNW 18:50:14 65° NE 18:50:14 65° NE
Cosmos 1153 Rocket 4.4 18:45:52 10° N 19:00:15 - SSE 18:51:37 56° ENE
CZ-3A R/B 3.7 18:46:18 10° W 18:56:18 43° NNW 18:57:35 37° NNE
Cosmos 1624 Rocket 3.9 18:51:26 10° SSW 18:56:38 83° WNW 18:57:33 61° N
Cosmos 1605 Rocket 3.9 18:54:08 10° N 19:00:29 90° WSW 19:06:41 10° S
Cosmos 1371 Rocket 4.4 18:57:07 10° SSW 19:02:27 63° WNW 19:04:11 41° N
Cosmos 1666 4.1 18:59:10 10° NNW 19:02:47 39° W 19:06:24 10° SSW
ISS -0.5 19:05:14 10° WNW 19:06:03 16° NW 19:06:03 16° NW
SL-8 R/B 4.1 19:03:58 10° W 19:07:58 58° WNW 19:07:58 58° WNW
METEOR-M 4.5 19:07:08 10° S 19:12:25 63° W 19:17:44 10° NNW
Cosmos 2278 Rocket 4.3 19:12:13 10° W 19:16:22 20° NW 19:19:36 13° N
GEOS 3 Rocket 4.1 19:22:24 50° SSW 19:23:00 53° SW 19:28:02 10° NW
Cosmos 1727 Rocket 4.3 19:35:02 10° SSW 19:40:32 63° WSW 19:40:32 63° WSW
FALCON 9 R/B 4.0 19:38:56 10° W 19:52:43 34° SSW 19:53:49 32° S
USA 234 4.3 20:15:23 38° NW 20:15:23 38° NW 20:20:10 10° W
CZ-3B DEB 4.0 20:15:06 10° WNW 20:21:49 56° N 20:21:49 56° N
